When you browse on this site, cookies collect data to enhance your experience and personalize the content and advertising you see.
Visit our Privacy Policy to learn more. By continuing to use the site, you agree to this use of cookies and data.

Hourly Weather Tiba

Today, 13 July, Monday

Time Temperature Precipitation Wind Pressure Humidity
00:00 +25°C° 0 mm 3 mps 755 mmHg 70%
01:00 +24°C° 0 mm 3 mps 755 mmHg 71%
02:00 +24°C° 0 mm 3 mps 755 mmHg 72%
03:00 +24°C° 0 mm 3 mps 756 mmHg 74%
04:00 +24°C° 0 mm 3 mps 756 mmHg 74%
05:00 +24°C° 0 mm 3 mps 756 mmHg 75%
06:00 +24°C° 0 mm 3 mps 757 mmHg 75%
07:00 +24°C° 0.1 mm 2 mps 757 mmHg 73%
08:00 +25°C° 0.1 mm 2 mps 757 mmHg 70%
09:00 +25°C° 0.1 mm 2 mps 757 mmHg 68%
10:00 +26°C° 0 mm 2 mps 757 mmHg 67%
11:00 +26°C° 0 mm 2 mps 757 mmHg 65%
12:00 +26°C° 0 mm 2 mps 757 mmHg 64%
13:00 +26°C° 0.1 mm 3 mps 757 mmHg 64%
14:00 +26°C° 0.1 mm 3 mps 757 mmHg 64%
15:00 +27°C° 0.1 mm 3 mps 757 mmHg 64%
16:00 +26°C° 0.1 mm 3 mps 757 mmHg 67%
17:00 +26°C° 0.1 mm 3 mps 757 mmHg 70%
18:00 +25°C° 0.1 mm 3 mps 757 mmHg 73%
19:00 +25°C° 0.3 mm 3 mps 757 mmHg 76%
20:00 +25°C° 0.3 mm 3 mps 757 mmHg 80%
21:00 +25°C° 0.3 mm 3 mps 757 mmHg 83%
22:00 +24°C° 0.9 mm 3 mps 756 mmHg 84%
23:00 +24°C° 0.9 mm 3 mps 756 mmHg 84%

Tomorrow, 14 July, Tuesday

Time Temperature Precipitation Wind Pressure Humidity
00:00 +24°C° 0.9 mm 3 mps 756 mmHg 85%
01:00 +24°C° 0.3 mm 3 mps 755 mmHg 84%
02:00 +24°C° 0.3 mm 3 mps 755 mmHg 83%
03:00 +24°C° 0.3 mm 2 mps 754 mmHg 83%
04:00 +24°C° 0.7 mm 3 mps 754 mmHg 84%
05:00 +24°C° 0.7 mm 3 mps 754 mmHg 85%
06:00 +24°C° 0.7 mm 3 mps 754 mmHg 86%
07:00 +23°C° 1.5 mm 4 mps 754 mmHg 86%
08:00 +25°C° 1.5 mm 5 mps 754 mmHg 87%
09:00 +25°C° 1.5 mm 5 mps 754 mmHg 87%
10:00 +24°C° 2.8 mm 6 mps 754 mmHg 87%
11:00 +26°C° 2.8 mm 7 mps 753 mmHg 86%
12:00 +26°C° 2.8 mm 7 mps 753 mmHg 85%
13:00 +26°C° 1.2 mm 7 mps 752 mmHg 82%
14:00 +27°C° 1.2 mm 7 mps 752 mmHg 79%
15:00 +27°C° 1.2 mm 6 mps 751 mmHg 75%
16:00 +27°C° 0.1 mm 7 mps 751 mmHg 74%
17:00 +27°C° 0.1 mm 8 mps 751 mmHg 73%
18:00 +27°C° 0.1 mm 8 mps 751 mmHg 71%
19:00 +27°C° 0 mm 8 mps 751 mmHg 73%
20:00 +27°C° 0 mm 8 mps 751 mmHg 74%
21:00 +27°C° 0 mm 8 mps 751 mmHg 76%
22:00 +27°C° 0 mm 8 mps 750 mmHg 77%
23:00 +27°C° 0 mm 7 mps 750 mmHg 78%

Day after tomorrow, 15 July, Wednesday

Time Temperature Precipitation Wind Pressure Humidity
00:00 +27°C° 0 mm 7 mps 750 mmHg 79%
01:00 +27°C° 0 mm 7 mps 750 mmHg 79%
02:00 +27°C° 0 mm 7 mps 749 mmHg 79%
03:00 +26°C° 0 mm 7 mps 749 mmHg 79%
04:00 +27°C° 0 mm 6 mps 749 mmHg 80%
05:00 +27°C° 0 mm 5 mps 749 mmHg 81%
06:00 +27°C° 0 mm 4 mps 749 mmHg 82%
07:00 +28°C° 0.1 mm 3 mps 749 mmHg 77%
08:00 +29°C° 0.1 mm 2 mps 749 mmHg 71%
09:00 +29°C° 0.1 mm 2 mps 749 mmHg 66%
10:00 +29°C° 0.1 mm 2 mps 748 mmHg 65%
11:00 +29°C° 0.1 mm 2 mps 748 mmHg 64%
12:00 +29°C° 0.1 mm 3 mps 748 mmHg 63%
13:00 +29°C° 0.2 mm 3 mps 748 mmHg 63%
14:00 +29°C° 0.2 mm 3 mps 748 mmHg 63%
15:00 +29°C° 0.2 mm 4 mps 748 mmHg 62%
16:00 +28°C° 0.5 mm 4 mps 748 mmHg 67%
17:00 +26°C° 0.5 mm 4 mps 749 mmHg 71%
18:00 +25°C° 0.5 mm 4 mps 749 mmHg 76%
19:00 +25°C° 0.1 mm 5 mps 749 mmHg 76%
20:00 +23°C° 0.1 mm 5 mps 750 mmHg 76%
21:00 +23°C° 0.1 mm 6 mps 750 mmHg 77%
22:00 +23°C° 0.3 mm 5 mps 750 mmHg 78%
23:00 +22°C° 0.3 mm 5 mps 750 mmHg 79%

16 July, Thursday

Time Temperature Precipitation Wind Pressure Humidity
00:00 +22°C° 0.3 mm 4 mps 751 mmHg 80%
01:00 +22°C° 0.1 mm 4 mps 751 mmHg 80%
02:00 +22°C° 0.1 mm 4 mps 751 mmHg 79%
03:00 +22°C° 0.1 mm 4 mps 751 mmHg 79%
04:00 +22°C° 0 mm 4 mps 751 mmHg 78%
05:00 +22°C° 0 mm 3 mps 752 mmHg 77%
06:00 +22°C° 0 mm 3 mps 752 mmHg 77%
07:00 +22°C° 0 mm 3 mps 753 mmHg 75%
08:00 +24°C° 0 mm 3 mps 753 mmHg 72%
09:00 +24°C° 0 mm 3 mps 753 mmHg 70%
10:00 +25°C° 0 mm 3 mps 753 mmHg 68%
11:00 +26°C° 0 mm 2 mps 753 mmHg 66%
12:00 +26°C° 0 mm 2 mps 754 mmHg 64%
13:00 +26°C° 0 mm 2 mps 754 mmHg 65%
14:00 +26°C° 0 mm 2 mps 754 mmHg 65%
15:00 +26°C° 0 mm 3 mps 754 mmHg 66%
16:00 +26°C° 0 mm 3 mps 754 mmHg 68%
17:00 +26°C° 0 mm 3 mps 754 mmHg 70%
18:00 +26°C° 0 mm 3 mps 755 mmHg 72%
19:00 +26°C° 0 mm 3 mps 755 mmHg 75%
20:00 +25°C° 0 mm 3 mps 755 mmHg 77%
21:00 +25°C° 0 mm 2 mps 756 mmHg 80%
22:00 +25°C° 0 mm 2 mps 756 mmHg 81%
23:00 +25°C° 0 mm 2 mps 756 mmHg 83%

17 July, Friday

Time Temperature Precipitation Wind Pressure Humidity
00:00 +25°C° 0 mm 2 mps 755 mmHg 84%
01:00 +25°C° 0.1 mm 2 mps 755 mmHg 85%
02:00 +25°C° 0.1 mm 2 mps 755 mmHg 86%
03:00 +25°C° 0.1 mm 2 mps 755 mmHg 87%
04:00 +25°C° 1.8 mm 2 mps 755 mmHg 89%
05:00 +24°C° 1.8 mm 2 mps 755 mmHg 90%
06:00 +24°C° 1.8 mm 2 mps 755 mmHg 92%
07:00 +25°C° 0.9 mm 2 mps 755 mmHg 90%
08:00 +25°C° 0.9 mm 1 mps 755 mmHg 87%
09:00 +25°C° 0.9 mm 1 mps 755 mmHg 85%
10:00 +25°C° 0.3 mm 1 mps 755 mmHg 82%
11:00 +26°C° 0.3 mm 1 mps 755 mmHg 80%
12:00 +26°C° 0.3 mm 1 mps 755 mmHg 78%
13:00 +26°C° 0 mm 1 mps 755 mmHg 77%
14:00 +27°C° 0 mm 1 mps 755 mmHg 76%
15:00 +27°C° 0 mm 1 mps 755 mmHg 75%
16:00 +27°C° 0 mm 1 mps 756 mmHg 74%
17:00 +27°C° 0 mm 1 mps 756 mmHg 74%
18:00 +27°C° 0 mm 1 mps 756 mmHg 74%
19:00 +27°C° 0 mm 1 mps 757 mmHg 77%
20:00 +26°C° 0 mm 1 mps 757 mmHg 79%
21:00 +26°C° 0 mm 1 mps 758 mmHg 82%
22:00 +26°C° 0 mm 1 mps 758 mmHg 83%
23:00 +26°C° 0 mm 1 mps 758 mmHg 85%

18 July, Saturday

Time Temperature Precipitation Wind Pressure Humidity
00:00 +25°C° 0 mm 2 mps 758 mmHg 87%
01:00 +25°C° 0 mm 1 mps 758 mmHg 88%
02:00 +25°C° 0 mm 1 mps 758 mmHg 88%
03:00 +25°C° 0 mm 1 mps 758 mmHg 89%
04:00 +25°C° 0 mm 1 mps 758 mmHg 89%
05:00 +25°C° 0 mm 1 mps 759 mmHg 88%
06:00 +26°C° 0 mm 1 mps 759 mmHg 87%
07:00 +26°C° 0 mm 1 mps 759 mmHg 86%
08:00 +26°C° 0 mm 2 mps 759 mmHg 84%
09:00 +27°C° 0 mm 2 mps 759 mmHg 82%
10:00 +27°C° 0 mm 2 mps 759 mmHg 79%
11:00 +28°C° 0 mm 2 mps 759 mmHg 76%
12:00 +28°C° 0 mm 3 mps 759 mmHg 74%
13:00 +28°C° 0 mm 3 mps 759 mmHg 75%
14:00 +28°C° 0 mm 2 mps 758 mmHg 76%
15:00 +28°C° 0 mm 2 mps 758 mmHg 77%
16:00 +28°C° 0.1 mm 2 mps 758 mmHg 80%
17:00 +27°C° 0.1 mm 2 mps 758 mmHg 83%
18:00 +27°C° 0.1 mm 2 mps 758 mmHg 86%
19:00 +27°C° 0 mm 3 mps 758 mmHg 87%
20:00 +27°C° 0 mm 3 mps 759 mmHg 88%
21:00 +27°C° 0 mm 3 mps 759 mmHg 89%
22:00 +27°C° 0 mm 3 mps 759 mmHg 89%
23:00 +27°C° 0 mm 3 mps 758 mmHg 89%
Show more